This is the latest recevied weather packets stored in our database for station/object DM1MT. If no packets are shown the sender has not sent any weather packets the latest 10 day(s).
| Time | Temp. | Humidity | Pressure | Rain* | Wind** | Luminosity | Snow |
|---|---|---|---|---|---|---|---|
| 1777855031 | 15° C | 63% | 1005.3 hPa | 0 mm | - | 0 W/m² | - |
| 1777853806 | 15° C | 63% | 1005.5 hPa | 0 mm | - | 0 W/m² | - |
| 1777843595 | 17.78° C | 51% | 1005.1 hPa | 0 mm | - | 0 W/m² | - |
| 1777839407 | 19.44° C | 46% | 1005.3 hPa | 0 mm | - | 0 W/m² | - |
| 1777833383 | 20.56° C | 41% | 1003.6 hPa | 0 mm | - | 1 W/m² | - |
| 1777832808 | 21.11° C | 41% | 1003.6 hPa | 0 mm | - | 5 W/m² | - |
| 1777832251 | 21.11° C | 40% | 1003.5 hPa | 0 mm | - | 11 W/m² | - |
| 1777831664 | 21.11° C | 40% | 1003.5 hPa | 0 mm | - | 16 W/m² | - |
| 1777828563 | 22.78° C | 37% | 1003.4 hPa | 0 mm | - | 32 W/m² | - |
| 1777828063 | 22.78° C | 37% | 1003.4 hPa | 0 mm | - | 41 W/m² | - |
| 1777827362 | 22.78° C | 37% | 1003.4 hPa | 0 mm | - | 54 W/m² | - |
| 1777821390 | 24.44° C | 36% | 1003.8 hPa | 0 mm | - | 145 W/m² | - |
| 1777817223 | 23.33° C | 39% | 1004.2 hPa | 0 mm | - | 177 W/m² | - |
| 1777816006 | 23.33° C | 39% | 1004.4 hPa | 0 mm | - | 136 W/m² | - |
| 1777815417 | 23.89° C | 37% | 1004.5 hPa | 0 mm | - | 160 W/m² | - |
| 1777811203 | 23.89° C | 38% | 1005 hPa | 0 mm | - | 355 W/m² | - |
| 1777810663 | 23.33° C | 39% | 1005.2 hPa | 0 mm | - | 214 W/m² | - |
| 1777807583 | 21.11° C | 43% | 1005.3 hPa | 0 mm | - | 362 W/m² | - |
| 1777805269 | 19.44° C | 54% | 1005.8 hPa | 0 mm | - | 321 W/m² | - |
| 1777802209 | 18.89° C | 59% | 1005.9 hPa | 0 mm | - | 134 W/m² | - |
| 1777799869 | 17.22° C | 60% | 1006.4 hPa | 0 mm | - | 236 W/m² | - |
| 1777798643 | 16.67° C | 69% | 1006.6 hPa | 0 mm | - | 152 W/m² | - |
| 1777796803 | 16.67° C | 63% | 1006.7 hPa | 0 mm | - | 57 W/m² | - |
| 1777795609 | 16.67° C | 63% | 1006.5 hPa | 0 mm | - | 87 W/m² | - |
| 1777790882 | 14.44° C | 67% | 1006.8 hPa | 0 mm | - | 90 W/m² | - |
* Rain latest hour (hover to see other rain measurements)
** Current wind speed in m/s (hover to see current wind gust speed)